CZ-6A DEB, 61390

Orbit data source: Space-Track

CZ-6A DEB, 61390 is space debris in LEO originally from a launch on Tue, 06 Aug 2024 UTC launched from the Taiyaun Space Center, China (TSC). Debris objects in space refer to the collection of defunct objects orbiting the Earth. Examples of debris include non-operational satellites, rocket bodies, and fragments generated from explosions, collisions, or faulty payload assembly.

Loading next visibility...
Identifier
61390, 2024-140XF
Orbit
LEO
Country
Flag of CNCN / PRC
Related business
Manufacturer
SAST
Mission
Spacecraft
Bus & Motor
Unknown
Mass
Unknown
Launch date (UTC)
2024-08-06 (2 years ago)
Launch vehicle
Unknown
Launch site
Taiyaun Space Center, China (TSC)
Object type
Payload
Rocket body
Debris
Shape & HBR
Unknown shape, 0.1 m
Radar Cross Section
Small (<0.1 m²)

Expand to show TLE details & history
Last TLE update: 16 hours ago

TLE from 16 hours ago
0 CZ-6A DEB
1 61390U 24140XF  26129.83384273  .00002680  00000-0  10013-2 0  9991
2 61390  88.6848 253.8002 0015536 235.1462 124.8274 14.31547216 87384
Epoch: 2026-05-09T20:00Z
TLE epoch observation values (Epoch: 2026-05-09T20:00:44.011Z)
Latitude
-0.00005°
Longitude
85.97122°
Altitude
796.002 km
Speed
7.452 km/s
True Right ascension
16h 55m 12s
True Declination
0° 00' 00"
Sunlit
Object was in full shadow at epoch
Visualization orbit readout
Latitude
Unknown
Longitude
Unknown
Altitude
Unknown
Speed
Unknown
Apparent Right ascension
Unknown
Apparent Declination
Unknown
Sunlit
N/A
Visualization observer readout
Local Sidereal Time
19:50:57
Azimuth
Unknown
Elevation
Unknown
Doppler factor
Unknown
Orbital elements
Apogee altitude
794.627 km
Perigee altitude
772.374 km
Semi-major axis
7,161.637 km
Eccentricity
0.00155
Inclination
88.6848°
RAAN
253.8002°
Arg. of periapsis
235.1462°
True anomaly
124.97338°
Mean anomaly
124.8274°
Eccentric anomaly
124.90041°
Mean motion
3.58117 °/min
Orbital period
100.53 mins
BSTAR
0.0010013
Loading maneuver chart data...
Computing Atmospheric mass density...
Loading historical data...
Loading historical data...
Loading historical data...
Loading historical data...
Loading historical data...
Loading historical data...
Loading historical data...

Documentation

Showing up to 5 results
|